sat.trackr.live / text

‹ back to catalog

STARLINK-31019

NORAD 58540 · 2023-192K

PAYLOAD ACTIVE UNKNOWN

§ Identity

Operator
Country
US
Launch date
2023-12-08
Launch site
AFWTR
Launch vehicle
Mass (kg)
RCS (m²)

Purposes: comms

External: N2YO · Heavens-Above · Gunter

§ Orbital elements

Epoch: 2026-09-20T08:08:31.254432Z

Period
93.85 min
Inclination
53.1568°
Eccentricity
0.0001836
Mean motion
15.34349599 rev/d
Perigee alt
461.6 km
Apogee alt
464.1 km
Semi-major
6,841.0 km
B*
2.4953e-4
RAAN
234.6028°
Arg perigee
100.1325°
Mean anomaly
259.9885°
Rev number
15,584

§ Raw data

STARLINK-310191 58540U 23192K   26263.33925063  .00008050  00000+0  24953-3 0  99972 58540  53.1568 234.6028 0001836 100.1325 259.9885 15.34349599155848

JSON: /api/v1/satellites/58540 · /tle

For live sub-satellite position, see the globe view (requires WebGL).

§ Visibility from observer

Set your observer location to see the next 7 days of passes ≥ 10°. The values pass through the URL so the page stays shareable.

No JS? Fill the form by hand. The geolocation button needs JavaScript.